Weather History for Reno, NV

Change the Weather History Date:

Thursday, October 18, 2012

  Actual Average Record
Temperature  
Mean Temperature 58 °F 53 °F  
Max Temperature 78 °F 68 °F 86 °F (1988)
Min Temperature 37 °F 38 °F 19 °F (1946)
Degree Days  
Heating Degree Days 7 12  
Month to date heating degree days 62 159  
Since 1 July heating degree days 63 249  
Cooling Degree Days 0 0  
Month to date cooling degree days 17 4  
Year to date cooling degree days 1272 838  
Growing Degree Days 8 (Base 50)    
Moisture  
Dew Point 25 °F    
Average Humidity 38    
Maximum Humidity 64    
Minimum Humidity 12    
Precipitation  
Precipitation 0.00 in 0.01 in 0.33 in (1972)
Month to date precipitation 0.08 0.29  
Year to date precipitation 2.81 5.33  
Snow  
Snow 0.00 in 0.00 in 1.00 in (1920)
Month to date snowfall 0.0 0.1  
Since 1 July snowfall 0.0 0.2  
Since 1 September snowfall 0.0 0.2  
Snow Depth 0.00 in    
Sea Level Pressure  
Sea Level Pressure 30.13 in    
Wind  
Wind Speed 0 mph (North)    
Max Wind Speed 9 mph    
Max Gust Speed 14 mph    
Visibility 10 miles    
Events      
T = Trace of Precipitation, MM = Missing Value Source: NWS Daily Summary

Daily Weather History Graph

Daily Weather History Graph

Search for Another Location

Airport:

Trip Planner

Search our weather history database for the weather conditions in past years. The results will help you decide how hot, cold, wet, or windy it might be!

Date:

Astronomy

Oct. 18, 2012 Rise Set
Actual Time 7:12 AM PDT 6:14 PM PDT
Civil Twilight 6:45 AM PDT 6:41 PM PDT
Nautical Twilight 6:14 AM PDT 7:13 PM PDT
Astronomical Twilight 5:43 AM PDT 7:44 PM PDT
Moon 10:59 AM PDT (10/18) 8:55 PM PDT (10/18)
Length of Visible Light 11h 56m
Length of Day
11h 02m
Waxing Crescent, 15% of the Moon is Illuminated
Oct 18
Waxing Crescent
Oct 21
First Quarter
Oct 29
Full
Nov 6
Last Quarter
Nov 13
New

Hourly Weather History & Observations

Time (PDT) Temp. Windchill Dew Point Humidity Pressure Visibility Wind Dir Wind Speed Gust Speed Precip Events Conditions
12:55 AM 48.0 °F - 25.0 °F 41% 30.17 in 10.0 mi West 3.5 mph - N/A   Clear
1:55 AM 46.0 °F - 27.0 °F 47% 30.17 in 10.0 mi Calm Calm - N/A   Clear
2:55 AM 43.0 °F - 27.0 °F 53% 30.18 in 10.0 mi Calm Calm - N/A   Clear
3:55 AM 44.1 °F 42.5 °F 23.0 °F 43% 30.17 in 10.0 mi West 3.5 mph - N/A   Clear
4:55 AM 41.0 °F - 28.0 °F 60% 30.18 in 10.0 mi Calm Calm - N/A   Clear
5:55 AM 39.0 °F - 27.0 °F 62% 30.21 in 10.0 mi Calm Calm - N/A   Clear
6:55 AM 37.9 °F - 27.0 °F 65% 30.22 in 10.0 mi Calm Calm - N/A   Clear
7:55 AM 39.0 °F - 26.1 °F 60% 30.23 in 10.0 mi Calm Calm - N/A   Clear
8:55 AM 44.1 °F - 27.0 °F 51% 30.24 in 10.0 mi Calm Calm - N/A   Clear
9:55 AM 51.1 °F - 23.0 °F 33% 30.23 in 10.0 mi Calm Calm - N/A   Partly Cloudy
10:55 AM 57.0 °F - 24.1 °F 28% 30.20 in 10.0 mi Calm Calm - N/A   Partly Cloudy
11:55 AM 62.1 °F - 25.0 °F 24% 30.17 in 10.0 mi Calm Calm - N/A   Partly Cloudy
12:55 PM 68.0 °F - 21.9 °F 17% 30.13 in 10.0 mi Calm Calm - N/A   Partly Cloudy
1:55 PM 71.1 °F - 19.9 °F 14% 30.08 in 10.0 mi ENE 3.5 mph - N/A   Partly Cloudy
2:55 PM 75.0 °F - 19.9 °F 13% 30.05 in 10.0 mi Calm Calm - N/A   Partly Cloudy
3:55 PM 75.9 °F - 19.0 °F 12% 30.03 in 10.0 mi Calm Calm - N/A   Partly Cloudy
4:55 PM 75.9 °F - 19.9 °F 12% 30.03 in 10.0 mi NE 3.5 mph - N/A   Partly Cloudy
5:55 PM 73.9 °F - 21.9 °F 14% 30.03 in 10.0 mi Calm Calm - N/A   Partly Cloudy
6:55 PM 70.0 °F - 21.0 °F 16% 30.05 in 10.0 mi Calm Calm - N/A   Partly Cloudy
7:55 PM 64.0 °F - 27.0 °F 25% 30.07 in 10.0 mi Calm Calm - N/A   Clear
8:55 PM 62.1 °F - 28.0 °F 28% 30.08 in 10.0 mi Calm Calm - N/A   Clear
9:55 PM 60.1 °F - 27.0 °F 28% 30.08 in 10.0 mi Calm Calm - N/A   Clear
10:55 PM 53.1 °F - 30.0 °F 41% 30.09 in 10.0 mi Calm Calm - N/A   Clear
11:55 PM 54.0 °F - 30.9 °F 41% 30.07 in 10.0 mi Calm Calm - N/A   Clear